Weather in Sosnovka

Russia / Khabarovsk Krai     48°19′48″N   135°04′15″E
temp.,
°C
wind,
m/s
gust,
m/s
humid.,
%
clouds,
%
prec.,
mm/h
press.,
hPa
HPBL,
m
27 january, wed
wed2701:00−18nne1199100 0.1 101620
04:00−19nne11100100 0.1 101520
07:00−21nw11100100 0.1 101520
10:00−19nw1296100 0.1 1016120
13:00−16wsw2388100 0.1 1017414
16:00−16wsw3489100 0.2 1017466
19:00−22ssw239872 0.0 101827
22:00−21sw239568 0.1 101965
28 january, thu
thu2801:00−22sw3495100 0.0 1019100
04:00−26sw349372 0.0 101969
07:00−27sw33940 0.0 102049
10:00−25ssw23930 0.0 102190
13:00−20sw12780 0.0 1020364
16:00−19n11750 0.0 1018437
19:00−25se009451 0.0 101820
22:00−23n229276 0.0 101830
29 january, fri
fri2901:00−26nne229599 0.0 101643
04:00−25n239499 0.0 1014101
07:00−25n3695100 0.0 1013210
10:00−24n3694100 0.0 1013294
13:00−21nnw3794100 0.2 1013500
16:00−20nnw2595100 0.8 1013647
19:00−21wnw2499100 0.4 1015219
22:00−21w2398100 0.8 1017111
30 january, sat
sat3001:00−22w1298100 0.1 101949
04:00−23wsw2297100 0.2 102177
07:00−25sw2398100 0.1 1023108
10:00−26ssw2396100 0.1 1025101
13:00−24sw2290100 0.0 1025240
16:00−23sw228979 0.0 1024253
19:00−29sw229024 0.0 102623
22:00−30ssw228944 0.0 102539
31 january, sun
sun3101:00−30ssw3495100 0.0 102667
04:00−30ssw349693 0.0 102689
07:00−32ssw349511 0.0 102681
10:00−31ssw35916 0.0 1026148
13:00−27sw46860 0.0 1025310
16:00−26sw36876 0.0 1024345
19:00−29sw339641 0.0 102669
22:00−29sw339627 0.0 102659